Regional Weather Roundup
Issued by NWS

Home | Current Version | Previous Version | Graphics & Text | Print | Product List | Glossary On
Versions: 1 2 3 4 5 6 7 8 9 10 11 12 13 14 15 16 17 18 19 20 21 22 23 24 25 26 27 28 29 30 31 32 33 34 35 36 37 38 39 40 41 42 43 44 45 46 47 48 49 50
406
ASUS43 KOAX 220402
RWRNE

WEATHER ROUNDUP FOR NEBRASKA
NATIONAL WEATHER SERVICE OMAHA NE
1100 PM CDT THU SEP 21 2017

NOTES: SATELLITE DATA IS BEING USED TO AUGMENT CLOUD COVER ABOVE
       12000 FEET.
       "FAIR" INDICATES FEW OR NO CLOUDS BELOW 12,000 FEET WITH NO
       SIGNIFICANT WEATHER AND/OR OBSTRUCTIONS TO VISIBILITY.


NEZ001>004-019>022-054>056-220500-
NEBRASKA PANHANDLE

CITY           SKY/WX    TMP DP  RH WIND       PRES   REMARKS
SCOTTSBLUFF    CLEAR     61  44  53 CALM      29.61F
ALLIANCE       CLEAR     57  44  62 SE8       29.62F
CHADRON        CLEAR     63  38  39 NE12      29.68R
KIMBALL        CLEAR     62  36  38 SE7       29.67F
SIDNEY         CLEAR     60  32  34 S10       29.66S
$$

NEZ057>060-069>072-079>082-220500-
SOUTHWEST NEBRASKA

CITY           SKY/WX    TMP DP  RH WIND       PRES   REMARKS
NORTH PLATTE   CLEAR     82  42  24 S15G24    29.64S
IMPERIAL       CLEAR     71  34  25 S10       29.65R
LEXINGTON      CLEAR     73  44  35 S10       29.69R
MCCOOK         LGT RAIN  81  43  26 S16       29.66R
OGALLALA       CLEAR     75  40  28 SE13      29.63S
$$

NEZ005>010-023>029-035>040-094-220500-
NORTH CENTRAL NEBRASKA

CITY           SKY/WX    TMP DP  RH WIND       PRES   REMARKS
VALENTINE      CLEAR     71  55  56 E7        29.62F
BROKEN BOW     CLEAR     71  51  49 SE10      29.68R
O`NEILL        CLEAR     80  68  67 SE16G23   29.67S
ORD            CLEAR     80  66  62 SE14G23   29.67R
THEDFORD       CLEAR     71  46  40 SE10      29.66S
$$

NEZ041-046>049-061>064-073>077-083>087-220500-
SOUTH CENTRAL NEBRASKA

CITY           SKY/WX    TMP DP  RH WIND       PRES   REMARKS
GRAND ISLAND   CLEAR     81  71  71 SE17G26   29.72R
AURORA         CLEAR     83  69  63 S17G26    29.73S
HASTINGS       CLEAR     84  66  54 S16G25    29.74R
HEBRON         PTCLDY    84  71  63 S20       29.77R
HOLDREGE       CLEAR     79  56  44 S16G22    29.70S
KEARNEY        CLEAR     81  62  52 S18G26    29.71R
YORK           PTCLDY    82  72  69 S17G23    29.75R
$$

NEZ011>018-030>034-042>045-220500-
NORTHEAST NEBRASKA

CITY           SKY/WX    TMP DP  RH WIND       PRES   REMARKS
NORFOLK        CLEAR     80  72  76 SE18      29.72S
ALBION         CLEAR     80  71  74 SE14G20   29.72R
BLAIR          PTCLDY    82  73  75 SE15      29.80R
COLUMBUS       CLEAR     82  73  74 SE16G23   29.74R
FREMONT        MOCLDY    82  72  71 SE15G23   29.78R
TEKAMAH        CLEAR     82  72  71 S14G21    29.77R
WAYNE          PTCLDY    81  77  88 S18G26    29.74S
$$

NEZ050>053-065>068-078-088>093-220500-
SOUTHEAST NEBRASKA

CITY           SKY/WX    TMP DP  RH WIND       PRES   REMARKS
LINCOLN        CLEAR     83  72  69 S18G26    29.77R
OMAHA EPPLEY   CLEAR     83  73  72 S17G24    29.79R
BEATRICE       CLEAR     83  73  70 S17G26    29.80R
FALLS CITY     CLEAR     82  72  71 S10       29.83R
NEBRASKA CITY  PTCLDY    81  75  82 S15G21    29.82R
PLATTSMOUTH    MOCLDY    81  74  80 SE12      29.82R
$$

NEZ044-045-051>053-067-220500-
OMAHA AREA

CITY           SKY/WX    TMP DP  RH WIND       PRES   REMARKS
OMAHA EPPLEY   CLEAR     83  73  72 S17G24    29.79R
BLAIR          PTCLDY    82  73  75 SE15      29.80R
FREMONT        MOCLDY    82  72  71 SE15G23   29.78R
MILLARD        PTCLDY    84  75  74 SE10G17   29.79R HX  91
OFFUTT AFB     PTCLDY    82  73  74 SE15      29.79R
PLATTSMOUTH    MOCLDY    81  74  80 SE12      29.82R
WAHOO          FAIR      82  73  73 SE15      29.78R
$$




USA.gov is the U.S. government's official web portal to all federal, state and local government web resources and services.